Hourly Data Report for July 06, 2016

OTTAWA INTL A
ONTARIO

45°19'00.000" N
75°40'00.000" W
114.90 m
6106001
71628
YOW

Download Data

Hourly Data (July 2016)
Hourly Data Report for July 6, 2016
TIME
LST
Temp Definition
°C
Dew Point Definition
°C
Rel Hum Definition
%
Precip. Amount Definition
mm

Wind Dir Definition
10's deg

Wind Spd Definition
km/h
Visibility Definition
km
Stn Press Definition
kPa
Hmdx Definition


Wind Chill Definition


Weather Definition


00:00 20.6 14.6 68   25 9 24.1 99.43     LegendNANA
01:00 20.5 14.7 69   24 9 24.1 99.45     Clear
02:00 18.8 14.3 75   24 9 24.1 99.53     LegendNANA
03:00 17.9 14.6 81   21 10 24.1 99.60     LegendNANA
04:00 17.5 14.6 83   23 9 24.1 99.61     Mainly Clear
05:00 17.7 14.8 83   26 9 24.1 99.59     LegendNANA
06:00 19.4 15.7 79   23 9 24.1 99.61     LegendNANA
07:00 21.8 16.4 71   25 8 24.1 99.56 27   Mainly Clear
08:00 23.6 16.0 62   23 13 24.1 99.63 28   LegendNANA
09:00 25.1 17.2 61   23 9 24.1 99.68 31   LegendNANA
10:00 27.3 17.9 56   22 16 24.1 99.66 33   Mainly Clear
11:00 28.7 18.7 54   22 18 24.1 99.66 35   LegendNANA
12:00 28.6 18.9 55   24 13 24.1 99.62 35   LegendNANA
13:00 30.3 18.0 47   21 11 24.1 99.57 36   Mostly Cloudy
14:00 29.0 18.4 52   25 9 24.1 99.58 35   LegendNANA
15:00 26.0 18.3 62   20 15 24.1 99.59 32   LegendNANA
16:00 27.3 18.5 58   36 1 24.1 99.54 34   Mostly Cloudy
17:00 29.3 15.3 42   34 8 24.1 99.50 33   LegendNANA
18:00 29.8 17.2 46   15 8 24.1 99.50 35   LegendNANA
19:00 25.1 20.2 74   13 8 24.1 99.54 33   Mostly Cloudy
20:00 23.8 20.0 79   12 7 24.1 99.53 31   LegendNANA
21:00 24.0 20.4 80   5 11 24.1 99.56 32   LegendNANA
22:00 23.9 19.3 75   8 13 24.1 99.52 31   Cloudy
23:00 23.4 18.8 75   9 15 24.1 99.48 30   LegendNANA

Notes on Data Quality.

Legend

  • E = Estimated
  • M = Missing
  • NA = Not Available*
  • [empty] = Indicates an unobserved value
Date modified: